Flag for U.S.A. Weather past 2 weeks in Sunrise, Florida, U.S.A.

Now
78 °F

Clear.


Feels Like: 81 °F
Forecast: 78 / 88 °F
Wind: 3 mph from Northwest

Location: Fort Lauderdale Executive Airport

Current Time: Sep 3, 2014 at 3:17:32 AM

Latest Report: Sep 3, 2014 at 2:53 AM


Visibility: 10 mi

Pressure: 30.00 "Hg

Humidity: 96%

Dew point: 77 °F

Location of SunriseLocation

Historic Weather in Sunrise — Graph

°F

Sunrise temperature yesterday

Maximum temperature yesterday: 91 °F (at 3:53 PM)
Minimum temperature yesterday: 77 °F (at 9:53 PM)
Average temperature yesterday: 84 °F

Past Weeks' High & Low Weather Summary

 TemperatureHumidityPressure
High93 °F (Aug 20, 3:53 PM)97% (Aug 19, 6:53 AM)30.13 "Hg (Aug 19, 6:53 AM)
Low77 °F (Sep 2, 9:53 PM)52% (Aug 24, 12:53 PM)29.73 "Hg (Aug 25, 3:53 PM)
Average85 °F74%29.99 "Hg
* Reported Aug 19 1:53 AM — Sep 3 1:53 AM, Sunrise, Weather by CustomWeather, © 2014

Note: Actual official high and low records may vary slightly from our data, if they occured in-between our weather recording intervals... More about our weather records

Advertising

Sunrise weather history for previous 24 hours

 ConditionsComfort  
Time TempWeatherWind HumidityBarometerVisibility
1:53 AM
Sep 3
78 °FClear.No wind93%30.00 "Hg10 mi
12:53 AM79 °FClear.5 mph94%30.01 "Hg10 mi
11:53 PM
Sep 2
77 °FClear.3 mph96%30.02 "Hg10 mi
10:53 PM77 °FClear.3 mph94%30.03 "Hg10 mi
9:53 PM77 °FPassing clouds.6 mph94%30.04 "Hg10 mi
8:53 PM81 °FLight rain. Passing clouds.7 mph85%30.03 "Hg7 mi
7:53 PM84 °FSunny.9 mph70%30.02 "Hg10 mi
6:53 PM85 °FSunny.10 mph68%30.01 "Hg10 mi
5:53 PM87 °FScattered clouds.13 mph65%30.00 "Hg10 mi
4:53 PM89 °FScattered clouds.15 mph59%30.00 "Hg10 mi
3:53 PM91 °FPassing clouds.13 mph56%30.02 "Hg10 mi
2:53 PM90 °FScattered clouds.14 mph57%30.04 "Hg10 mi
1:53 PM90 °FScattered clouds.12 mph61%30.05 "Hg10 mi
12:53 PM88 °FScattered clouds.10 mph61%30.06 "Hg10 mi
11:53 AM90 °FScattered clouds.13 mph59%30.07 "Hg10 mi
10:53 AM89 °FScattered clouds.15 mph63%30.08 "Hg10 mi
9:53 AM88 °FScattered clouds.14 mph63%30.07 "Hg10 mi
8:53 AM86 °FScattered clouds.7 mph70%30.06 "Hg10 mi
7:53 AM82 °FPassing clouds.9 mph79%30.05 "Hg10 mi
6:53 AM80 °FPassing clouds.3 mph81%30.02 "Hg10 mi
5:53 AM79 °FPassing clouds.No wind90%30.01 "Hg10 mi
4:53 AM80 °FClear.No wind85%30.01 "Hg10 mi
3:53 AM80 °FPassing clouds.No wind81%30.03 "Hg10 mi
Weather by CustomWeather, © 2014

See weather overviewHow to use our weather pages